Regional Weather Roundup
Issued by NWS

Home | Current Version | Previous Version | Text Only | Print | Product List | Glossary On
Versions: 1 2 3 4 5 6 7 8 9 10 11 12 13 14 15 16 17 18 19 20 21 22 23 24 25 26 27 28 29 30 31 32 33 34 35 36 37 38 39 40 41 42 43 44 45 46 47 48 49 50
000
ASUS43 KLSX 012007
RWRMO

WEATHER SUMMARY FOR MISSOURI
NATIONAL WEATHER SERVICE SPRINGFIELD MO
300 PM CDT WED JUL 01 2015

NOTE: "FAIR" INDICATES FEW OR NO CLOUDS BELOW 12,000 FEET WITH NO
       SIGNIFICANT WEATHER AND/OR OBSTRUCTIONS TO VISIBILITY.
       CURRENT SKY AND/OR WEATHER CONDITIONS ARE NOT AVAILABLE FOR
       CHILLICOTHE AND FARMINGTON.

MOZ001>031-035>038-043-044-053-054-012100-
...NORTHERN AND WESTERN MISSOURI...

CITY           SKY/WX    TMP DP  RH WIND       PRES   REMARKS
KANSAS CTY INT PTSUNNY   84  73  69 S10       29.83S HX  90
KANSAS C DTWN  PTSUNNY   85  73  67 S12G18    29.82F HX  91
LEE`S SUMMIT   MOSUNNY   82  72  71 S9        29.85F
ST JOSEPH      MOSUNNY   82  72  71 SE7       29.83F
CHILLICOTHE      N/A     82  72  71 S8        29.86F
KIRKSVILLE     MOSUNNY   78  67  68 SE3       29.88F

$$
MOZ066>068-077>081-088>096-101>105-012100-
...SOUTHWEST MISSOURI...

CITY           SKY/WX    TMP DP  RH WIND       PRES   REMARKS
SPRINGFIELD    CLOUDY    77  71  82 S15       29.91F
JOPLIN         CLOUDY    85  74  69 S12       29.89S HX  92

$$
MOZ032>034-039>042-045>050-055>058-069>072-012100-
...CENTRAL MISSOURI...

CITY           SKY/WX    TMP DP  RH WIND       PRES   REMARKS
COLUMBIA       CLOUDY    76  70  82 CALM      29.88F
JEFFERSON CITY CLOUDY    78  68  71 S3        29.87S
ROLLA          CLOUDY    77  69  76 CALM      29.90S
SEDALIA        CLOUDY    80  73  79 NE8       29.88F
WHITEMAN AFB   PTSUNNY   81  73  77 S12       29.85F
WARRENSBURG    MOSUNNY   81  72  74 S8        29.85F
OSAGE BEACH    PTSUNNY   79  72  78 S8        29.87F

$$
MOZ051-052-059>065-012100-
...EAST CENTRAL MISSOURI...

CITY           SKY/WX    TMP DP  RH WIND       PRES   REMARKS
ST LOUIS INTL  PTSUNNY   85  69  58 N8        29.86F
SPIRIT OF STL  MOSUNNY   82  72  69 W9        29.87S
ST CHARLES     MOSUNNY   82  69  64 W5        29.85F

$$
MOZ072>076-082>087-097>100-106>115-012100-
...SOUTH CENTRAL AND SOUTHEAST MISSOURI...

CITY           SKY/WX    TMP DP  RH WIND       PRES   REMARKS
CAPE GIRARDEAU PTSUNNY   82  69  64 W13       29.89R
FARMINGTON     PTSUNNY   81  68  65 NW8       29.94R
WEST PLAINS    CLOUDY    73  68  84 SW9       29.97F

$$



USA.gov is the U.S. government's official web portal to all federal, state and local government web resources and services.